NUSANTARA TIGA (SATRIA)

Last updated on Thu Jul 03 2025 00:02:49 GMT+0000 (Coordinated Universal Time)

1 57045U 23086A 25182.95313549 -.00000230 00000+0 00000+0 0 9991 2 57045 0.0327 335.3751 0002669 6.7041 67.2792 1.00270689 6241
UTC large
Height (km)
Speed (km/s)
/
Latitude / Longitude
Inclination (degrees)
Orbital Period (minutes)
Azimuth
Elevation
Range (km)
Doppler Factor

Next 0 passes for location: London (51.5072 / 0.1276)

Sorry there are no passes over London.